Location: Astronomy Club of Akron Observatory
(40.9700°N, 81.5606°W)
Time: 11:31:22
(UTC-04:00)

ATLAS 2AS CENTAUR R/B - Visible Passes

Search period start: 21 April 2014 00:00
Search period end: 01 May 2014 00:00
Orbit: 925 x 1287 km, 63.7° (Epoch: 17 April)

Date Brightness Start Highest point End Pass type
(mag) Time Alt. Az. Time Alt. Az. Time Alt. Az.
21 Apr 5.4 00:37:28 10° NNW 00:41:57 16° NNE 00:46:28 10° NE visible
21 Apr 4.2 02:28:07 10° NNW 02:35:30 38° NE 02:42:48 10° ESE visible
21 Apr 3.0 04:19:04 10° NW 04:26:57 60° WSW 04:34:35 10° SSE visible
21 Apr 5.5 21:56:53 10° WNW 22:01:26 17° NNW 22:06:08 10° NNE visible
21 Apr 5.5 23:52:30 10° NNW 23:56:12 14° N 23:59:55 10° NE visible
22 Apr 4.7 01:43:32 10° NNW 01:50:16 29° NE 01:56:58 10° E visible
22 Apr 2.9 03:34:12 10° NW 03:42:18 88° WSW 03:50:10 10° SSE visible
22 Apr 4.2 05:27:08 10° WNW 05:32:16 19° WSW 05:37:19 10° SW visible
22 Apr 5.4 21:10:31 10° WNW 21:15:51 21° NNW 21:21:26 10° NNE visible
22 Apr 5.5 23:07:05 10° NNW 23:10:23 13° N 23:13:43 10° NNE visible
23 Apr 5.0 00:58:56 10° NNW 01:04:52 22° NNE 01:10:48 10° ENE visible
23 Apr 3.3 02:49:28 10° NNW 02:57:30 66° NE 03:02:47 23° SE visible
23 Apr 3.7 04:41:18 10° NW 04:48:01 30° WSW 04:49:59 27° SW visible
23 Apr 5.5 22:21:06 10° NW 22:24:34 13° N 22:28:05 10° NNE visible
24 Apr 5.3 00:14:17 10° NNW 00:19:18 18° NNE 00:24:21 10° ENE visible
24 Apr 3.8 02:04:49 10° NNW 02:12:31 47° NE 02:17:06 24° ESE visible
24 Apr 3.2 03:56:02 10° NW 04:03:37 47° WSW 04:04:24 46° SW visible
24 Apr 5.4 21:34:43 10° NW 21:38:48 15° NNW 21:42:59 10° NNE visible
24 Apr 5.4 23:29:28 10° NNW 23:33:36 15° NNE 23:37:47 10° NE visible
25 Apr 4.3 01:20:13 10° NNW 01:27:23 34° NE 01:32:18 18° E visible
25 Apr 2.9 03:11:03 10° NW 03:19:03 71° WSW 03:19:38 68° SSW visible
25 Apr 4.6 05:05:16 10° WNW 05:06:59 13° W 05:06:59 13° W visible
25 Apr 5.3 20:48:16 10° WNW 20:53:08 18° NNW 20:58:11 10° NNE visible
25 Apr 5.4 22:44:21 10° NNW 22:47:49 13° N 22:51:20 10° NNE visible
26 Apr 4.7 00:35:38 10° NNW 00:42:04 26° NNE 00:47:54 12° E visible
26 Apr 3.0 02:26:15 10° NNW 02:34:21 81° NE 02:35:16 71° ESE visible
26 Apr 4.3 04:18:39 10° WNW 04:22:38 21° W 04:22:38 21° W visible
26 Apr 5.4 21:58:42 10° NNW 22:02:00 13° N 22:05:20 10° NNE visible
26 Apr 5.0 23:51:01 10° NNW 23:56:36 20° NNE 00:02:11 10° ENE visible
27 Apr 3.5 01:41:33 10° NNW 01:49:28 57° NE 01:51:07 49° E visible
27 Apr 3.8 03:33:06 10° NW 03:38:30 33° W 03:38:30 33° W visible
27 Apr 5.4 21:12:31 10° NW 21:16:11 14° N 21:19:57 10° NNE visible
27 Apr 5.2 23:06:19 10° NNW 23:10:59 16° NNE 23:15:40 10° NE visible
28 Apr 4.0 00:56:55 10° NNW 01:04:26 41° NE 01:07:08 32° E visible
28 Apr 3.3 02:47:57 10° NW 02:54:31 51° W 02:54:31 51° W visible
28 Apr 5.3 22:21:25 10° NNW 22:25:14 14° N 22:29:07 10° NE visible
29 Apr 4.4 00:12:20 10° NNW 00:19:13 30° NE 00:23:15 20° E visible
29 Apr 3.0 02:03:03 10° NW 02:10:39 78° WNW 02:10:39 78° WNW visible
29 Apr 4.7 03:56:20 10° WNW 03:58:03 14° WNW 03:58:03 14° WNW visible
29 Apr 5.3 21:36:06 10° NNW 21:39:26 13° N 21:42:48 10° NNE visible
29 Apr 4.8 23:27:44 10° NNW 23:33:50 23° NNE 23:39:28 11° ENE visible
30 Apr 3.1 01:18:18 10° NNW 01:26:21 71° NE 01:26:53 69° E visible
30 Apr 4.3 03:10:18 10° NW 03:14:17 24° W 03:14:17 24° W visible
30 Apr 5.3 20:50:13 10° NNW 20:53:36 13° N 20:57:03 10° NNE visible
30 Apr 5.1 22:43:06 10° NNW 22:48:18 18° NNE 22:53:32 10° ENE visible
